Time,TemperatureF,DewpointF,PressureIn,WindDirection,WindDirectionDegrees,WindSpeedMPH,WindSpeedGustMPH,Humidity,HourlyPrecipIn,Conditions,Clouds,dailyrainin,SoftwareType,DateUTC
2013-05-09 00:08:00,59.7,25.7,29.79,WNW,292,0.0,-999.0,27,-99.99,,,0.00,Acu-Link.com,2013-05-09 06:08:00,
2013-05-09 00:23:00,58.5,25.5,29.79,SSW,202,0.0,-999.0,28,-99.99,,,0.00,Acu-Link.com,2013-05-09 06:23:00,
2013-05-09 00:39:00,57.2,26.1,29.80,ESE,112,0.0,-999.0,30,-99.99,,,0.00,Acu-Link.com,2013-05-09 06:39:00,
2013-05-09 00:54:00,56.1,26.7,29.79,SE,135,0.0,-999.0,32,-99.99,,,0.00,Acu-Link.com,2013-05-09 06:54:00,
2013-05-09 01:09:00,55.4,27.5,29.79,SW,225,0.0,-999.0,34,-99.99,,,0.00,Acu-Link.com,2013-05-09 07:09:00,
2013-05-09 01:24:00,54.7,26.9,29.80,ESE,112,0.0,-999.0,34,-99.99,,,0.00,Acu-Link.com,2013-05-09 07:24:00,
2013-05-09 01:39:00,53.1,27.5,29.80,SSE,157,0.0,-999.0,37,-99.99,,,0.00,Acu-Link.com,2013-05-09 07:39:00,
2013-05-09 01:55:00,52.2,27.4,29.79,South,180,0.0,-999.0,38,-99.99,,,0.00,Acu-Link.com,2013-05-09 07:55:00,
2013-05-09 02:10:00,51.8,27.6,29.80,West,270,0.0,-999.0,39,-99.99,,,0.00,Acu-Link.com,2013-05-09 08:10:00,
2013-05-09 02:25:00,51.6,27.5,29.80,South,180,0.0,-999.0,39,-99.99,,,0.00,Acu-Link.com,2013-05-09 08:25:00,
2013-05-09 02:40:00,50.9,27.4,29.79,SW,225,0.0,-999.0,40,-99.99,,,0.00,Acu-Link.com,2013-05-09 08:40:00,
2013-05-09 02:55:00,50.0,27.8,29.80,WNW,292,0.0,-999.0,42,-99.99,,,0.00,Acu-Link.com,2013-05-09 08:55:00,
2013-05-09 03:11:00,49.6,28.0,29.79,ESE,112,0.0,-999.0,43,-99.99,,,0.00,Acu-Link.com,2013-05-09 09:11:00,
2013-05-09 03:26:00,49.5,28.5,29.79,ESE,112,0.0,-999.0,44,-99.99,,,0.00,Acu-Link.com,2013-05-09 09:26:00,
2013-05-09 03:41:00,48.9,28.0,29.80,SSW,202,0.0,-999.0,44,-99.99,,,0.00,Acu-Link.com,2013-05-09 09:41:00,
2013-05-09 03:56:00,48.2,27.9,29.80,WSW,247,0.0,-999.0,45,-99.99,,,0.00,Acu-Link.com,2013-05-09 09:56:00,
2013-05-09 04:12:00,47.3,28.1,29.80,SW,225,0.0,-999.0,47,-99.99,,,0.00,Acu-Link.com,2013-05-09 10:12:00,
2013-05-09 04:27:00,46.8,28.2,29.80,SSW,202,0.0,-999.0,48,-99.99,,,0.00,Acu-Link.com,2013-05-09 10:27:00,
2013-05-09 04:42:00,46.4,27.8,29.80,SW,225,0.0,-999.0,48,-99.99,,,0.00,Acu-Link.com,2013-05-09 10:42:00,
2013-05-09 04:58:00,45.9,28.8,29.80,ESE,112,0.0,-999.0,51,-99.99,,,0.00,Acu-Link.com,2013-05-09 10:58:00,
2013-05-09 05:13:00,45.9,29.3,29.81,SSW,202,0.0,-999.0,52,-99.99,,,0.00,Acu-Link.com,2013-05-09 11:13:00,
2013-05-09 05:28:00,46.0,29.4,29.81,South,180,0.0,-999.0,52,-99.99,,,0.00,Acu-Link.com,2013-05-09 11:28:00,
2013-05-09 05:44:00,46.4,29.7,29.80,SE,135,0.0,-999.0,52,-99.99,,,0.00,Acu-Link.com,2013-05-09 11:44:00,
2013-05-09 05:59:00,45.7,30.0,29.81,SSW,202,0.0,-999.0,54,-99.99,,,0.00,Acu-Link.com,2013-05-09 11:59:00,
2013-05-09 06:14:00,45.9,30.2,29.81,South,180,0.0,-999.0,54,-99.99,,,0.00,Acu-Link.com,2013-05-09 12:14:00,
2013-05-09 06:30:00,45.9,30.7,29.83,SSW,202,0.0,-999.0,55,-99.99,,,0.00,Acu-Link.com,2013-05-09 12:30:00,
2013-05-09 06:45:00,46.9,31.1,29.83,South,180,0.0,-999.0,54,-99.99,,,0.00,Acu-Link.com,2013-05-09 12:45:00,
2013-05-09 07:00:00,49.6,32.7,29.83,SW,225,0.0,-999.0,52,-99.99,,,0.00,Acu-Link.com,2013-05-09 13:00:00,
2013-05-09 07:16:00,54.5,33.0,29.83,North,0,0.0,-999.0,44,-99.99,,,0.00,Acu-Link.com,2013-05-09 13:16:00,
2013-05-09 07:31:00,55.2,32.5,29.84,WNW,292,0.0,-999.0,42,-99.99,,,0.00,Acu-Link.com,2013-05-09 13:31:00,
2013-05-09 07:46:00,56.3,32.3,29.84,SSE,157,0.0,-999.0,40,-99.99,,,0.00,Acu-Link.com,2013-05-09 13:46:00,
2013-05-09 08:01:00,57.2,32.5,29.84,NNE,22,2.7,-999.0,39,-99.99,,,0.00,Acu-Link.com,2013-05-09 14:01:00,
2013-05-09 08:17:00,59.7,32.7,29.83,NNE,22,3.7,-999.0,36,-99.99,,,0.00,Acu-Link.com,2013-05-09 14:17:00,
2013-05-09 08:32:00,60.4,31.9,29.85,ENE,67,2.7,-999.0,34,-99.99,,,0.00,Acu-Link.com,2013-05-09 14:32:00,
2013-05-09 08:47:00,63.9,33.5,29.86,NE,45,2.2,-999.0,32,-99.99,,,0.00,Acu-Link.com,2013-05-09 14:47:00,
2013-05-09 09:03:00,65.5,33.2,29.85,ESE,112,0.0,-999.0,30,-99.99,,,0.00,Acu-Link.com,2013-05-09 15:03:00,
2013-05-09 09:18:00,72.3,33.5,29.84,WSW,247,1.1,-999.0,24,-99.99,,,0.00,Acu-Link.com,2013-05-09 15:18:00,
2013-05-09 09:33:00,73.4,33.3,29.85,NNE,22,0.0,-999.0,23,-99.99,,,0.00,Acu-Link.com,2013-05-09 15:33:00,
2013-05-09 09:48:00,76.3,33.5,29.84,South,180,0.0,-999.0,21,-99.99,,,0.00,Acu-Link.com,2013-05-09 15:48:00,
2013-05-09 10:04:00,75.0,32.4,29.84,North,0,1.7,-999.0,21,-99.99,,,0.00,Acu-Link.com,2013-05-09 16:04:00,
2013-05-09 10:19:00,75.9,33.2,29.83,West,270,0.0,-999.0,21,-99.99,,,0.00,Acu-Link.com,2013-05-09 16:19:00,
2013-05-09 10:34:00,79.7,32.4,29.83,SSW,202,0.0,-999.0,18,-99.99,,,0.00,Acu-Link.com,2013-05-09 16:34:00,
2013-05-09 10:49:00,83.8,32.8,29.83,South,180,1.7,-999.0,16,-99.99,,,0.00,Acu-Link.com,2013-05-09 16:49:00,
2013-05-09 11:05:00,81.0,32.1,29.84,ESE,112,2.7,-999.0,17,-99.99,,,0.00,Acu-Link.com,2013-05-09 17:05:00,
2013-05-09 11:20:00,80.6,31.7,29.82,WSW,247,2.7,-999.0,17,-99.99,,,0.00,Acu-Link.com,2013-05-09 17:20:00,
2013-05-09 11:35:00,78.8,31.7,29.82,East,90,0.0,-999.0,18,-99.99,,,0.00,Acu-Link.com,2013-05-09 17:35:00,
2013-05-09 11:50:00,82.0,32.9,29.82,WNW,292,3.2,-999.0,17,-99.99,,,0.00,Acu-Link.com,2013-05-09 17:50:00,
2013-05-09 12:05:00,83.3,-26.9,29.81,NE,45,0.0,-999.0,1,-99.99,,,0.00,Acu-Link.com,2013-05-09 18:05:00,
2013-05-09 12:21:00,85.8,-25.4,29.81,NNE,22,4.7,-999.0,1,-99.99,,,0.00,Acu-Link.com,2013-05-09 18:21:00,
2013-05-09 12:36:00,84.7,-26.1,29.80,ENE,67,2.7,-999.0,1,-99.99,,,0.00,Acu-Link.com,2013-05-09 18:36:00,
2013-05-09 12:51:00,84.2,-26.3,29.81,ENE,67,1.7,-999.0,1,-99.99,,,0.00,Acu-Link.com,2013-05-09 18:51:00,
2013-05-09 13:07:00,84.9,-25.9,29.80,WSW,247,2.2,-999.0,1,-99.99,,,0.00,Acu-Link.com,2013-05-09 19:07:00,
2013-05-09 13:22:00,79.3,29.2,29.79,West,270,3.7,-999.0,16,-99.99,,,0.00,Acu-Link.com,2013-05-09 19:22:00,
2013-05-09 13:37:00,80.4,28.5,29.79,ESE,112,0.0,-999.0,15,-99.99,,,0.00,Acu-Link.com,2013-05-09 19:37:00,
2013-05-09 13:52:00,80.4,26.8,29.80,WNW,292,3.7,-999.0,14,-99.99,,,0.00,Acu-Link.com,2013-05-09 19:52:00,
2013-05-09 14:08:00,83.7,-26.6,29.78,South,180,0.0,-999.0,1,-99.99,,,0.00,Acu-Link.com,2013-05-09 20:08:00,
2013-05-09 14:23:00,84.2,-26.3,29.78,NW,315,3.2,-999.0,1,-99.99,,,0.00,Acu-Link.com,2013-05-09 20:23:00,
2013-05-09 14:38:00,82.8,-27.2,29.77,WSW,247,3.2,-999.0,1,-99.99,,,0.00,Acu-Link.com,2013-05-09 20:38:00,
2013-05-09 14:53:00,85.6,-25.5,29.75,NE,45,2.2,-999.0,1,-99.99,,,0.00,Acu-Link.com,2013-05-09 20:53:00,
2013-05-09 15:09:00,82.0,-27.7,29.75,East,90,2.7,-999.0,1,-99.99,,,0.00,Acu-Link.com,2013-05-09 21:09:00,
2013-05-09 15:24:00,79.5,-29.1,29.76,West,270,2.2,-999.0,1,-99.99,,,0.00,Acu-Link.com,2013-05-09 21:24:00,
2013-05-09 15:39:00,81.1,-28.2,29.74,SW,225,2.2,-999.0,1,-99.99,,,0.00,Acu-Link.com,2013-05-09 21:39:00,
2013-05-09 15:55:00,82.0,-27.7,29.75,SW,225,2.2,-999.0,1,-99.99,,,0.00,Acu-Link.com,2013-05-09 21:55:00,
2013-05-09 16:10:00,79.0,-29.4,29.75,SW,225,2.2,-999.0,1,-99.99,,,0.00,Acu-Link.com,2013-05-09 22:10:00,
2013-05-09 16:25:00,78.3,-16.8,29.74,NNW,337,0.0,-999.0,2,-99.99,,,0.00,Acu-Link.com,2013-05-09 22:25:00,
2013-05-09 16:41:00,76.1,28.1,29.73,ENE,67,2.7,-999.0,17,-99.99,,,0.00,Acu-Link.com,2013-05-09 22:41:00,
2013-05-09 16:56:00,75.9,28.0,29.74,West,270,3.2,-999.0,17,-99.99,,,0.00,Acu-Link.com,2013-05-09 22:56:00,
2013-05-09 17:11:00,74.7,28.4,29.74,SSE,157,0.0,-999.0,18,-99.99,,,0.00,Acu-Link.com,2013-05-09 23:11:00,
2013-05-09 17:27:00,74.1,27.9,29.74,ESE,112,1.7,-999.0,18,-99.99,,,0.00,Acu-Link.com,2013-05-09 23:27:00,
2013-05-09 17:42:00,73.2,27.2,29.75,ESE,112,0.0,-999.0,18,-99.99,,,0.00,Acu-Link.com,2013-05-09 23:42:00,
2013-05-09 17:57:00,72.1,28.8,29.74,NNW,337,0.0,-999.0,20,-99.99,,,0.00,Acu-Link.com,2013-05-09 23:57:00,
2013-05-09 18:12:00,71.8,28.6,29.73,West,270,2.2,-999.0,20,-99.99,,,0.00,Acu-Link.com,2013-05-10 00:12:00,
2013-05-09 18:27:00,72.3,30.2,29.75,West,270,6.8,-999.0,21,-99.99,,,0.00,Acu-Link.com,2013-05-10 00:27:00,
2013-05-09 18:43:00,74.1,29.2,29.75,NE,45,3.7,-999.0,19,-99.99,,,0.00,Acu-Link.com,2013-05-10 00:43:00,
2013-05-09 18:58:00,70.2,33.7,29.74,NE,45,3.7,-999.0,26,-99.99,,,0.00,Acu-Link.com,2013-05-10 00:58:00,
2013-05-09 19:13:00,68.5,33.2,29.75,NNE,22,1.7,-999.0,27,-99.99,,,0.00,Acu-Link.com,2013-05-10 01:13:00,
2013-05-09 19:28:00,67.6,33.3,29.76,East,90,3.7,-999.0,28,-99.99,,,0.00,Acu-Link.com,2013-05-10 01:28:00,
2013-05-09 19:44:00,67.1,34.6,29.77,SSE,157,2.7,-999.0,30,-99.99,,,0.00,Acu-Link.com,2013-05-10 01:44:00,
2013-05-09 19:59:00,66.4,34.0,29.79,ESE,112,3.7,-999.0,30,-99.99,,,0.00,Acu-Link.com,2013-05-10 01:59:00,
2013-05-09 20:14:00,65.7,34.2,29.80,NE,45,4.7,-999.0,31,-99.99,,,0.00,Acu-Link.com,2013-05-10 02:14:00,
2013-05-09 20:29:00,64.9,35.1,29.79,WNW,292,2.2,-999.0,33,-99.99,,,0.00,Acu-Link.com,2013-05-10 02:29:00,
2013-05-09 20:44:00,64.6,35.6,29.80,ENE,67,2.2,-999.0,34,-99.99,,,0.00,Acu-Link.com,2013-05-10 02:44:00,
2013-05-09 21:00:00,64.4,35.4,29.81,ENE,67,2.2,-999.0,34,-99.99,,,0.00,Acu-Link.com,2013-05-10 03:00:00,
2013-05-09 21:15:00,64.2,35.2,29.80,NE,45,3.7,-999.0,34,-99.99,,,0.00,Acu-Link.com,2013-05-10 03:15:00,
2013-05-09 21:30:00,63.7,35.5,29.83,South,180,3.7,-999.0,35,-99.99,,,0.00,Acu-Link.com,2013-05-10 03:30:00,
2013-05-09 21:46:00,62.8,36.1,29.84,North,0,1.1,-999.0,37,-99.99,,,0.00,Acu-Link.com,2013-05-10 03:46:00,
2013-05-09 22:01:00,62.4,36.5,29.84,NE,45,6.3,-999.0,38,-99.99,,,0.00,Acu-Link.com,2013-05-10 04:01:00,
2013-05-09 22:16:00,62.8,36.8,29.84,NNE,22,4.7,-999.0,38,-99.99,,,0.00,Acu-Link.com,2013-05-10 04:16:00,
2013-05-09 22:31:00,63.0,36.3,29.85,NE,45,1.1,-999.0,37,-99.99,,,0.00,Acu-Link.com,2013-05-10 04:31:00,
2013-05-09 22:47:00,62.4,36.5,29.87,SSE,157,3.7,-999.0,38,-99.99,,,0.00,Acu-Link.com,2013-05-10 04:47:00,
2013-05-09 23:02:00,62.4,36.5,29.88,SSE,157,1.7,-999.0,38,-99.99,,,0.00,Acu-Link.com,2013-05-10 05:02:00,
2013-05-09 23:17:00,61.9,37.3,29.91,NNW,337,0.0,-999.0,40,-99.99,,,0.00,Acu-Link.com,2013-05-10 05:17:00,
2013-05-09 23:32:00,60.1,40.3,29.91,SSE,157,3.2,-999.0,48,-99.99,,,0.00,Acu-Link.com,2013-05-10 05:32:00,
2013-05-09 23:47:00,59.2,43.0,29.91,NNE,22,2.7,-999.0,55,-99.99,,,0.00,Acu-Link.com,2013-05-10 05:47:00,